#timestamp,LO_Frequency,Hit,StdDev 
1552662015.9,286047001.2,N
1552662035.7,286046998.8,N
1552662055.5,286046998.3,N
1552662075.4,286047000.9,N
1552662095.2,286047002.5,N
1552662115.1,286047001.4,N
1552662116.0,286047001.4,N
1552662135.8,286047001.4,N
1552662155.6,286047000.0,N
1552662175.5,286046999.8,N
1552662195.3,286047000.4,N
1552662215.1,286047000.2,N
1552662235.9,286047000.3,N
1552662255.7,286046999.7,N
1552662275.6,286047000.1,N
1552662295.4,286047001.4,N
1552662315.2,286047001.4,N
1552662335.1,286047001.5,N
1552662336.0,286047001.5,N
1552662355.8,286047003.0,N
1552662375.6,286047003.3,N
1552662395.5,286047004.8,Y
1552662415.3,286047003.2,P
1552662435.2,286047002.4,N
1552662455.9,286047000.2,N
1552662475.7,286047000.1,N
1552662495.6,286047002.7,N
1552662515.4,286047002.7,N
1552662535.2,286047000.4,N
1552662555.1,286047002.8,N
1552662556.0,286047002.8,N
1552662575.8,286047002.7,N
1552662595.7,286047000.7,N
1552662615.5,286046999.8,N
1552662635.3,286047000.3,N
1552662655.2,286047002.6,N
1552662675.9,286047004.4,Y
1552662695.7,286047002.4,P
1552662715.6,286047000.3,N
1552662735.4,286046999.9,N
1552662755.3,286047002.4,N
1552662775.1,286046999.7,N
1552662776.0,286046999.7,N
1552662795.8,286047000.4,N
1552662815.7,286047000.6,N
1552662835.5,286047000.1,N
1552662855.3,286047001.1,N
1552662875.2,286047000.7,N
1552662895.0,286046998.8,N
1552662895.9,286046998.8,N
1552662915.8,286046996.7,Y
1552662935.6,286046997.4,P
1552662955.4,286046996.7,N
1552662975.3,286046998.8,N
1552662995.1,286046997.5,N
1552663015.8,286046995.0,Y
1552663035.7,286046998.3,P
1552663055.5,286046997.3,P
1552663075.4,286046997.0,P
1552663095.2,286046999.3,N
1552663115.0,286047000.9,N
1552663115.9,286047000.9,N
1552663135.8,286046999.0,N
1552663155.6,286046997.0,N
1552663175.4,286046999.4,N
1552663195.3,286046997.0,N
1552663215.1,286046997.1,N
1552663235.9,286046998.4,N
1552663255.7,286046999.3,N
1552663275.5,286046998.6,N
1552663295.4,286047001.1,N
1552663315.2,286047002.4,N
1552663335.0,286047000.2,N
1552663335.9,286047000.2,N
1552663355.8,286047000.2,N
1552663375.6,286047001.3,N
1552663395.5,286047001.8,N
1552663415.3,286047001.8,N
1552663435.1,286047001.8,N
1552663455.9,286047003.4,N
1552663475.7,286047003.5,N
1552663495.5,286047001.7,N
1552663515.4,286047001.8,N
1552663535.2,286047001.7,N
1552663555.1,286047003.4,N
1552663556.0,286047003.4,N
1552663575.8,286047004.1,N
1552663595.6,286047003.0,N
1552663615.5,286047003.0,N
1552663635.3,286047002.9,N
1552663655.1,286047004.2,N
1552663675.9,286047004.4,N
1552663695.7,286047001.9,N
1552663715.5,286047000.1,N
1552663735.4,286047001.2,N
1552663755.2,286047000.9,N
1552663775.1,286046999.8,N
1552663776.0,286046999.8,N
1552663795.8,286047000.5,N
1552663815.6,286046999.8,N
1552663835.5,286046999.7,N
1552663855.3,286047000.0,N
1552663875.1,286046999.8,N
1552663895.9,286047002.2,N
1552663915.7,286047002.4,N
1552663935.6,286046999.7,N
1552663955.4,286047002.2,N
1552663975.2,286047003.8,N
1552663995.1,286047005.6,Y
1552663996.0,286047005.6,P
1552664015.8,286047001.7,N
1552664035.7,286047001.3,N
1552664055.5,286047001.3,N
1552664075.3,286047002.0,N
1552664095.2,286047001.5,N
1552664115.9,286047001.9,N
1552664135.7,286047001.6,N
1552664155.6,286047001.3,N
1552664175.4,286047003.5,N
1552664195.2,286047003.7,N
1552664215.1,286047003.9,Y
1552664216.0,286047003.9,P
1552664235.8,286047002.0,N
1552664255.7,286047001.0,N
1552664275.5,286046999.4,N
1552664295.3,286046997.6,N
1552664315.2,286046993.4,Y
1552664335.0,286046996.3,P
1552664335.9,286046996.3,N
1552664355.8,286046995.2,N
1552664375.6,286046997.9,N
1552664395.4,286046996.7,N
1552664415.3,286046997.2,N
1552664435.1,286046996.7,N
1552664455.8,286046997.2,N
1552664475.7,286046999.5,N
1552664495.5,286046998.0,N
1552664515.4,286046997.9,N
1552664535.2,286046994.9,Y
1552664555.0,286046999.5,P
1552664555.9,286046999.5,N
1552664575.8,286046996.6,P
1552664595.6,286046997.4,N
1552664615.5,286046994.9,Y
1552664635.3,286046999.5,P
1552664655.1,286046998.7,N
1552664675.9,286047000.2,N
1552664695.7,286047002.3,N
1552664715.5,286047002.7,N
1552664735.4,286047002.3,N
1552664755.2,286047001.5,N
1552664775.0,286047001.6,N
1552664776.0,286047001.6,N
1552664795.8,286047003.9,N
1552664815.6,286047001.4,N
1552664835.5,286047001.7,N
1552664855.3,286047000.4,N
1552664875.1,286047000.2,N
1552664895.9,286047001.9,N
1552664915.7,286047004.0,N
1552664935.5,286047000.2,N
1552664955.4,286047002.1,N
1552664975.2,286047001.7,N
1552664995.1,286047004.3,N
1552664996.0,286047004.3,N
1552665015.8,286047001.5,N
1552665035.6,286047004.3,N
1552665055.5,286047003.5,N
1552665075.3,286047001.3,N
1552665095.1,286047001.7,N
1552665115.9,286047004.2,N
1552665135.7,286047003.9,N
1552665155.6,286047004.2,N
1552665175.4,286047004.3,N
1552665195.2,286047004.1,N
1552665215.1,286047004.0,N
1552665216.0,286047004.0,N
1552665235.8,286047002.5,N
1552665255.6,286047001.4,N
1552665275.5,286047004.3,Y
1552665295.3,286047000.5,P
1552665315.2,286047000.8,N
1552665335.9,286047001.2,N
1552665355.7,286046998.3,N
1552665375.6,286046998.2,N
1552665395.4,286046996.9,N
1552665415.3,286046996.5,N
1552665435.1,286046996.8,N
1552665436.0,286046996.8,N
1552665455.8,286046997.4,N
1552665475.7,286046997.6,N
1552665495.5,286046996.0,N
1552665515.3,286046996.0,N
1552665535.2,286046995.9,N
1552665555.0,286046996.2,N
1552665555.9,286046996.2,N
1552665575.8,286046996.4,N
1552665595.6,286046997.9,N
